Miscellaneous Local Product
Issued by NWS Hastings, NE

Home | Current Version | Previous Version | Graphics & Text | Print | Product List | Glossary On
Versions: 1 2 3 4 5 6 7 8 9 10 11 12 13 14 15 16 17 18 19 20 21 22 23 24 25 26 27 28 29 30 31 32 33 34 35 36 37 38 39 40 41 42 43 44 45 46 47 48 49 50
000
AXUS43 KGID 290502
MISGRI

GID CWA HOURLY WEATHER ROUNDUP
NATIONAL WEATHER SERVICE HASTINGS NE
1200 AM CDT FRI MAY 29 2015

NOTE: "FAIR" INDICATES FEW OR NO CLOUDS BELOW 12,000 FEET WITH NO
SIGNIFICANT WEATHER AND/OR OBSTRUCTIONS TO VISIBILITY.

...SOUTH CENTRAL NEBRASKA...

CITY           SKY/WX    TMP DP  RH WIND       PRES   REMARKS
GRAND ISLAND   TSTM      61  58  90 S8        29.94S FOG
HASTINGS       CLOUDY    63  59  87 CALM      29.93F
KEARNEY        CLOUDY    61  55  82 SE7       29.93R
ORD            CLOUDY    60  56  86 CALM      29.90S
YORK           CLOUDY    70  63  78 S9        29.92S
AURORA         CLOUDY    71  63  76 S12G18    29.92R
LEXINGTON      CLOUDY    58  55  90 CALM      29.92S
HOLDREGE       CLOUDY    61  53  73 CALM      29.93S
HEBRON         RAIN      68  63  83 SW14      29.95R

...NEBRASKA PANHANDLE...

CITY           SKY/WX    TMP DP  RH WIND       PRES   REMARKS
CHADRON        CLOUDY    54  52  93 W8        30.04R
ALLIANCE       CLOUDY    55  52  89 NW8       30.06R
SCOTTSBLUFF    CLOUDY    57  50  77 W7        30.08R
SIDNEY         LGT RAIN  54  50  86 N17G26    30.09R

...WESTERN AND NORTH CENTRAL NEBRASKA...

CITY           SKY/WX    TMP DP  RH WIND       PRES   REMARKS
VALENTINE      CLOUDY    59  54  83 NW5       29.92F
AINSWORTH      CLOUDY    63  57  80 NW14G23   29.95R
ONEILL         CLOUDY    67  63  87 N7        29.90S
BROKEN BOW     CLOUDY    60  58  92 SW3       29.89F
IMPERIAL       CLOUDY    56  51  84 W10       30.01R
NORTH PLATTE   CLOUDY    57  55  93 W9        29.97R
MCCOOK         CLOUDY    56  53  90 SW9       29.95R

...EASTERN NEBRASKA...

CITY           SKY/WX    TMP DP  RH WIND       PRES   REMARKS
NORFOLK        CLOUDY    69  64  84 S13       29.89R
SO SIOUX CITY  MOCLDY    68  62  81 SE9       29.89F
TEKAMAH        PTCLDY    66  64  93 SE9       29.91S
COLUMBUS       CLOUDY    66  61  82 S7        29.91S
ALBION         CLOUDY    70  59  68 S8        29.90R
OMAHA EPPLEY   CLOUDY    68  64  87 SE13      29.92F
OFFUTT AFB     MOCLDY    66  64  92 SE8       29.92F
MILLARD        MOCLDY    67  64  90 SE6       29.92F
LINCOLN        CLOUDY    69  65  86 S13       29.92F
NEBRASKA CITY  PTCLDY    66  64  94 S13       29.95F
BEATRICE       CLOUDY    68  64  87 S8        29.94F
FALLS CITY     PTCLDY    66  63  90 S9        29.94F

...NORTHERN KANSAS...

CITY           SKY/WX    TMP DP  RH WIND       PRES   REMARKS
GOODLAND       CLOUDY    53  51  93 SW3       30.01R
HILL CITY      CLOUDY    57  55  93 N9        29.93F
NORTON         CLEAR     57  50  77 W6        29.95R
SMITH CENTER   CLEAR     61  57  88 N8        29.92F
HAYS           CLOUDY    61  52  72 SW13G22   29.98R
RUSSELL        LGT RAIN  61  59  93 S14       29.92R
CONCORDIA      TSTM      62  60  93 W7        29.98S
SALINA         CLOUDY    66  58  75 N7        29.96F
TOPEKA         MOCLDY    66  64  93 SE8       29.97F



USA.gov is the U.S. government's official web portal to all federal, state and local government web resources and services.